This demonstration page uses our WeatherBlox Daily Observations layout. Learn more.

Left ArrowRight Arrow

Hourly Observations for April 15, 2022

Temp ( °F °C ) Dew Point ( °F °C ) Humidity (%) Winds ( mph kmh ) Pressure ( in mb ) Visibility ( mi km ) Precip ( " mm )
12:56 am 00:56 Cloudy 42 5.3 8 -13.2 25 25 N 15 24 30.01 1016 10 16 0.00 0.00
1:56 am 01:56 Mostly Cloudy 40 4.5 8 -13.4 26 26 N 15 24 30.03 1017 10 16 0.00 0.00
2:56 am 02:56 Partly Cloudy 37 2.8 8 -13.1 30 30 NNW 8 13 30.02 1017 10 16 0.00 0.00
3:56 am 03:56 Mostly Clear 35 1.6 9 -12.6 34 34 NNW 12 19 30.02 1017 10 16 0.00 0.00
4:56 am 04:56 Clear 33 0.6 10 -12.4 37 37 NNW 6 9 30.03 1017 10 16 0.00 0.00
5:56 am 05:56 Clear 31 -0.8 12 -11.3 45 45 N 8 13 30.02 1017 10 16 0.00 0.00
6:56 am 06:56 undefined 30 -1.2 13 -10.8 48 48 N 9 15 30.03 1017 10 16 0.00 0.00
7:56 am 07:56 Sunny 30 -0.9 13 -10.8 47 47 N 13 20 30.05 1018 10 16 0.00 0.00
8:56 am 08:56 Sunny 32 0.2 13 -10.6 44 44 N 13 20 30.06 1018 10 16 0.00 0.00
9:56 am 09:56 Sunny 37 2.5 15 -9.7 41 41 N 9 15 30.05 1018 10 16 0.00 0.00
10:56 am 10:56 Sunny 39 4.1 15 -9.6 36 36 N 6 9 30.03 1017 10 16 0.00 0.00
11:56 am 11:56 Sunny 43 6 16 -9.1 33 33 N 8 13 30.05 1018 10 16 0.00 0.00
12:56 pm 12:56 Sunny 45 7.4 17 -8.6 31 31 N 8 13 30.04 1017 10 16 0.00 0.00
1:56 pm 13:56 Mostly Sunny 48 8.8 17 -8.3 29 29 NW 5 7 30.03 1017 10 16 0.00 0.00
2:56 pm 14:56 Partly Cloudy 50 10 17 -8.2 27 27 NW 9 15 30.02 1017 10 16 0.00 0.00
3:56 pm 15:56 Partly Cloudy 51 10.4 19 -7.3 28 28 N 7 11 30.02 1017 10 16 0.00 0.00
4:56 pm 16:56 Partly Cloudy 49 9.3 19 -7.4 30 30 N 9 15 30.03 1017 10 16 0.00 0.00
5:56 pm 17:56 Mostly Cloudy 50 9.9 18 -7.8 28 28 N 12 19 30.04 1017 10 16 0.00 0.00
6:56 pm 18:56 Sunny 49 9.3 17 -8.3 28 28 N 10 17 30.06 1018 10 16 0.00 0.00
7:56 pm 19:56 Sunny 45 7.3 16 -9.1 30 30 NNE 10 17 30.09 1019 10 16 0.00 0.00
8:56 pm 20:56 Clear 42 5.8 16 -8.9 34 34 N 7 11 30.14 1021 10 16 0.00 0.00
9:56 pm 21:56 Clear 42 5.5 13 -10.3 31 31 N 10 17 30.16 1021 10 16 0.00 0.00
10:56 pm 22:56 Partly Cloudy 40 4.2 13 -10.3 34 34 N 8 13 30.18 1022 10 16 0.00 0.00
11:56 pm 23:56 Mostly Cloudy 40 4.3 14 -10.2 34 34 Calm 30.22 1023 10 16 0.00 0.00

Powered by AerisWeather